Probability
0 0 0 0 0 0 0 0 0 0 0 0 0 0 0 0 0 0 0 0 0 0 0 0 0 0 0 0 0 0 0 0 0 0 0 0 0 0 0 0 0 3 0 0
0 0 0 0 0 0 0 0 0 0 0 0 0 0 0 0 0 0 0 0 0 0 0 0 0 0 0 0 0 0 0 0 0 0 0 0 0 0 0 0 0 0 0 0
0 0 0 0 0 0 0 0 0 0 0 0 0 0 0 0 0 0 0 0 0 0 0 0 0 0 0 0 0 0 0 0 0 0 0 0 0 0 0 0 0 0 0 0
0 0 0 0 0 0 0 0 0 0 0 0 0 0 0 0 0 0 0 0 0 0 0 0 0 0 0 0 0 0 0 0 0 0 0 0 0 0 0 0 0 0 0 0
0 0 0 0 0 0 0 0 0 0 0 0 0 0 0 0 0 0 0 0 0 0 0 0 0 0 0 0 0 0 0 0 0 0 0 0 0 0 0 0 0 0 0 0
0 0 0 0 0 0 0 0 0 0 0 0 0 0 0 0 0 0 0 0 0 0 0 0 0 0 0 0 0 0 0 0 0 0 0 0 0 0 0 0 0 0 0 0
0 0 0 0 0 0 0 0 0 0 0 0 0 0 0 0 0 0 0 0 0 0 0 0 0 0 0 0 0 0 0 0 0 0 0 0 0 0 0 0 0 0 0 0
0 0 0 0 0 0 0 0 0 0 0 0 0 0 0 0 0 0 0 0 0 0 0 0 0 0 0 0 0 0 0 0 0 0 0 0 0 0 0 0 0 0 0 0
0 0 0 0 0 0 0 0 0 0 0 0 0 0 0 0 0 0 0 0 0 0 0 0 0 0 0 0 0 0 0 0 0 0 0 0 0 0 0 0 0 0 0 0
0 0 0 0 0 0 0 0 0 0 0 0 0 0 0 0 0 0 0 0 0 0 0 0 0 0 0 0 0 0 0 0 0 0 0 0 0 0 0 0 0 0 0 0
0 0 0 0 0 0 0 0 0 0 0 0 0 0 0 0 0 0 0 0 0 0 0 0 0 0 0 0 0 0 0 0 0 0 0 0 0 0 0 0 0 0 0 0
0 0 0 0 0 0 0 0 0 0 0 0 0 0 0 0 0 0 0 0 0 0 0 0 0 0 0 0 0 0 0 0 0 0 0 0 0 0 0 0 0 0 0 0
0 0 0 0 0 0 0 0 0 0 0 0 0 0 0 0 0 0 0 0 0 0 0 0 0 0 0 0 0 0 0 0 0 0 0 0 0 0 0 0 0 0 0 0
0 0 0 0 0 0 0 0 0 0 0 0 0 0 0 0 0 0 0 0 0 0 0 0 0 0 0 0 0 0 0 0 0 0 0 0 0 0 0 0 0 0 0 0
0 0 0 0 0 0 0 0 0 0 0 0 0 0 0 0 0 0 0 0 0 0 0 0 0 0 0 0 0 0 0 0 0 0 0 0 0 0 0 0 0 0 0 0
0 0 0 0 0 0 0 0 0 0 0 0 0 0 0 0 0 0 0 0 0 0 0 0 0 0 0 0 0 0 0 0 0 0 0 0 0 0 0 0 0 0 0 0
0 0 0 0 0 0 0 0 0 0 0 0 0 0 0 0 0 0 0 0 0 0 0 0 0 0 0 0 0 0 0 0 0 0 0 0 0 0 0 0 0 0 0 0
0 0 0 0 0 0 0 0 0 0 0 0 0 0 0 0 0 0 0 0 0 0 0 0 0 0 0 0 0 0 0 0 0 0 0 0 0 0 0 0 0 0 0 0
0 0 0 0 0 0 0 0 0 0 0 0 0 0 0 0 0 0 0 0 0 0 0 0 0 0 0 0 0 0 0 0 0 0 0 0 0 0 0 0 0 0 0 0
0 0 0 0 0 0 0 0 0 0 0 0 0 0 0 0 0 0 0 0 0 0 0 0 0 0 0 0 0 0 0 0 0 0 0 0 0 0 0 0 0 0 0 0
0 0 0 0 0 0 0 0 0 0 0 0 0 0 0 0 0 0 0 0 0 0 0 0 0 0 0 0 0 0 0 0 0 0 0 0 0 0 0 0 0 0 0 0
0 0 0 0 0 0 0 0 0 0 0 0 0 0 0 0 0 0 0 0 0 0 0 0 0 0 0 0 0 0 0 0 0 0 0 0 0 0 0 0 0 0 0 0
0 0 0 0 0 0 0 0 0 0 0 0 0 0 0 0 0 0 0 0 0 0 0 0 0 0 0 0 0 0 0 0 0 0 0 0 0 0 0 0 0 0 0 0
0 0 0 0 0 0 0 0 0 0 0 0 0 0 0 0 0 0 0 0 0 0 0 0 0 0 0 0 0 0 0 0 0 0 0 0 0 0 0 0 0 0 0 0
0 0 0 0 0 0 0 0 0 0 0 0 0 0 0 0 0 0 0 0 0 0 0 0 0 0 0 0 0 0 0 0 0 0 0 0 0 0 0 0 0 0 0 0
0 0 0 0 0 0 0 0 0 0 0 0 0 0 0 0 0 0 0 0 0 0 0 0 0 0 0 0 0 0 0 0 0 0 0 0 0 0 0 0 0 0 0 0
Height
5700 5701 5700 5701 5701 5701 5700 5701 5701 5703 5703 5704 5705 5707 5709 5710 5711 5713 5714 5716 5718 5719 5721 5723 5726 5728 5730 5732 5735 5738 5741 5743 5745 5747 5749 5751 5753 5755 5756 5758 5759 5760 5761 5762
5695 5694 5695 5694 5693 5693 5693 5693 5694 5695 5696 5696 5698 5700 5703 5703 5705 5706 5708 5709 5711 5712 5714 5716 5718 5720 5722 5724 5727 5730 5732 5735 5737 5739 5741 5742 5744 5746 5748 5749 5750 5751 5752 5753
5688 5689 5687 5687 5687 5686 5687 5687 5687 5688 5688 5688 5690 5693 5696 5697 5698 5699 5701 5702 5704 5705 5707 5709 5711 5712 5714 5716 5718 5721 5724 5726 5728 5730 5732 5734 5735 5737 5739 5741 5742 5743 5743 5744
5681 5681 5681 5680 5680 5679 5680 5680 5680 5680 5681 5682 5684 5684 5689 5690 5691 5692 5694 5695 5697 5699 5700 5702 5703 5704 5706 5708 5710 5713 5715 5718 5720 5722 5723 5725 5727 5729 5731 5732 5733 5734 5734 5735
5675 5675 5674 5674 5674 5673 5672 5672 5673 5673 5673 5674 5676 5676 5681 5683 5684 5686 5688 5689 5690 5691 5693 5694 5695 5696 5698 5700 5702 5704 5707 5709 5711 5713 5715 5717 5718 5720 5721 5723 5724 5725 5725 5726
5668 5668 5667 5667 5667 5666 5665 5666 5666 5665 5664 5666 5670 5669 5672 5676 5677 5679 5680 5681 5682 5683 5685 5686 5688 5689 5690 5692 5694 5696 5698 5700 5702 5704 5706 5708 5709 5710 5712 5713 5714 5715 5716 5716
5662 5661 5661 5661 5660 5660 5659 5660 5659 5658 5657 5659 5662 5661 5664 5668 5669 5670 5672 5673 5674 5675 5676 5678 5679 5681 5683 5684 5685 5687 5689 5691 5692 5694 5696 5698 5700 5701 5702 5703 5705 5705 5706 5707
5655 5655 5655 5654 5654 5653 5653 5653 5653 5652 5652 5652 5653 5653 5657 5659 5660 5661 5663 5663 5664 5666 5667 5669 5671 5672 5674 5676 5677 5678 5680 5681 5683 5685 5686 5688 5689 5691 5692 5693 5694 5695 5696 5696
5649 5649 5649 5648 5647 5647 5646 5646 5646 5645 5644 5644 5645 5646 5649 5650 5651 5653 5654 5655 5656 5657 5659 5660 5662 5663 5665 5666 5668 5669 5671 5672 5673 5675 5676 5678 5679 5680 5682 5683 5684 5684 5685 5685
5643 5643 5642 5641 5640 5640 5640 5639 5639 5638 5637 5636 5638 5639 5641 5642 5643 5644 5645 5646 5647 5648 5650 5651 5653 5654 5656 5657 5659 5660 5661 5662 5663 5665 5666 5667 5668 5669 5671 5672 5673 5673 5674 5674
5636 5636 5636 5635 5634 5633 5633 5633 5631 5631 5631 5630 5630 5634 5633 5634 5634 5635 5635 5636 5638 5640 5641 5642 5644 5645 5646 5647 5649 5650 5651 5652 5653 5654 5655 5657 5657 5658 5659 5660 5661 5662 5662 5662
5630 5629 5629 5629 5628 5626 5625 5625 5625 5625 5624 5624 5623 5627 5626 5626 5626 5626 5627 5628 5629 5631 5632 5633 5634 5635 5636 5637 5638 5640 5641 5642 5643 5644 5645 5645 5646 5647 5648 5648 5649 5650 5650 5651
5624 5623 5623 5622 5623 5621 5619 5619 5618 5618 5618 5617 5616 5620 5619 5618 5618 5618 5619 5619 5621 5621 5623 5623 5624 5626 5626 5627 5628 5629 5630 5631 5632 5633 5634 5634 5635 5635 5636 5636 5637 5637 5638 5638
5617 5617 5618 5617 5615 5614 5613 5613 5612 5611 5610 5610 5610 5611 5611 5610 5610 5610 5610 5610 5611 5612 5613 5614 5615 5615 5616 5617 5618 5618 5619 5620 5620 5621 5621 5622 5623 5623 5624 5624 5624 5624 5625 5625
5611 5611 5611 5610 5609 5607 5606 5606 5605 5604 5603 5603 5604 5603 5604 5603 5602 5602 5602 5602 5602 5603 5604 5604 5605 5605 5606 5606 5607 5607 5607 5608 5608 5609 5609 5609 5610 5611 5611 5611 5611 5611 5611 5612
5604 5604 5604 5604 5603 5601 5600 5599 5598 5597 5597 5596 5596 5596 5596 5595 5595 5595 5594 5594 5594 5594 5594 5595 5595 5595 5595 5595 5595 5595 5595 5595 5596 5596 5597 5597 5598 5598 5598 5599 5599 5598 5598 5598
5598 5598 5597 5597 5596 5594 5594 5594 5592 5591 5590 5589 5588 5590 5588 5588 5587 5586 5586 5585 5585 5585 5585 5585 5585 5584 5584 5583 5583 5583 5583 5583 5583 5583 5584 5585 5585 5585 5586 5586 5586 5585 5585 5585
5592 5591 5590 5590 5590 5588 5591 5588 5586 5585 5584 5582 5581 5581 5581 5580 5579 5578 5577 5577 5576 5576 5575 5575 5575 5574 5573 5572 5571 5571 5571 5571 5571 5571 5572 5572 5573 5573 5573 5573 5573 5572 5572 5572
5586 5585 5584 5584 5583 5582 5584 5582 5580 5578 5578 5577 5575 5574 5573 5572 5571 5571 5569 5568 5567 5566 5566 5565 5564 5564 5563 5562 5561 5560 5560 5560 5560 5560 5560 5560 5560 5560 5561 5561 5560 5560 5560 5560
5579 5579 5579 5578 5576 5576 5578 5576 5573 5572 5571 5571 5568 5567 5566 5565 5564 5564 5562 5559 5558 5557 5556 5556 5555 5553 5552 5551 5550 5550 5549 5549 5549 5548 5548 5548 5548 5548 5549 5549 5548 5548 5547 5547
5574 5573 5573 5571 5570 5570 5571 5569 5567 5566 5566 5563 5561 5560 5559 5557 5556 5555 5553 5551 5549 5548 5547 5546 5545 5543 5542 5541 5540 5539 5539 5538 5537 5537 5536 5536 5537 5537 5536 5536 5536 5536 5536 5536
5567 5567 5567 5565 5564 5567 5564 5562 5561 5559 5557 5555 5554 5552 5551 5550 5548 5546 5544 5543 5541 5540 5538 5537 5535 5534 5533 5531 5530 5530 5529 5528 5527 5526 5526 5526 5526 5525 5525 5524 5524 5524 5524 5524
5561 5562 5561 5561 5562 5560 5557 5555 5554 5552 5550 5548 5547 5545 5544 5542 5540 5538 5536 5535 5533 5531 5529 5528 5526 5525 5523 5522 5521 5520 5519 5518 5517 5516 5516 5515 5515 5515 5514 5513 5513 5512 5513 5513
5556 5555 5554 5554 5554 5552 5550 5548 5547 5545 5543 5541 5539 5538 5536 5534 5532 5530 5528 5526 5524 5522 5520 5518 5517 5516 5515 5513 5512 5511 5510 5508 5507 5507 5506 5506 5505 5505 5504 5503 5502 5502 5502 5501
5550 5549 5548 5547 5547 5545 5544 5542 5540 5538 5536 5534 5532 5530 5528 5526 5524 5522 5520 5518 5516 5513 5511 5509 5508 5507 5506 5505 5503 5502 5501 5499 5499 5498 5497 5497 5496 5495 5494 5493 5492 5491 5491 5490
5543 5543 5542 5541 5540 5539 5538 5535 5533 5531 5529 5526 5524 5522 5520 5518 5516 5514 5512 5510 5507 5505 5503 5501 5500 5498 5497 5496 5495 5493 5492 5491 5490 5490 5489 5488 5487 5486 5484 5483 5482 5481 5481 5480
Wind_Speed
25 25 26 27 29 30 31 32 32 32 32 33 32 32 30 31 31 31 31 31 32 33 33 34 35 36 38 39 38 38 38 39 39 39 39 40 40 40 41 41 40 40 40 40
25 25 26 27 29 30 31 32 32 33 33 34 33 32 31 31 31 31 31 31 31 33 33 34 33 35 37 39 39 39 38 38 39 39 39 39 40 40 40 40 40 39 39 39
25 25 26 27 28 29 30 31 32 33 33 34 34 33 31 30 31 31 30 31 31 31 32 32 33 34 35 37 39 39 39 39 38 38 39 39 39 40 40 40 40 40 39 39
25 25 26 26 27 28 29 30 31 33 33 34 34 35 31 31 30 31 31 30 31 32 32 33 34 34 34 36 38 39 39 39 38 38 38 38 39 40 40 40 40 40 40 39
25 26 26 26 26 27 28 29 30 32 33 35 35 36 33 31 31 31 30 31 32 33 33 33 34 35 35 35 37 38 39 39 39 39 39 39 40 40 40 40 41 41 41 41
25 25 25 25 26 26 28 29 30 31 32 34 33 35 35 32 31 31 31 31 33 34 34 34 34 35 35 35 36 37 39 40 40 40 40 40 41 41 41 41 41 42 42 42
24 25 24 24 25 26 27 28 29 30 31 32 32 35 35 33 32 32 31 31 32 33 34 35 35 35 35 35 36 37 38 39 40 40 41 41 41 41 41 42 42 42 42 42
23 24 23 24 24 25 25 26 27 28 29 30 31 33 34 34 34 33 32 32 32 31 32 33 34 35 36 36 37 37 38 39 39 40 41 41 41 41 41 42 41 42 42 42
23 24 24 24 25 25 25 25 26 28 29 30 31 32 33 33 34 35 34 33 33 32 32 32 33 34 35 36 37 37 38 39 39 39 40 40 41 41 41 42 41 42 43 43
23 24 24 24 24 24 25 25 25 27 28 30 30 30 31 31 32 34 34 34 34 33 33 33 33 34 35 36 37 37 37 38 39 40 40 41 42 42 42 42 42 42 43 44
23 24 23 24 23 24 24 24 25 27 27 28 29 29 30 30 30 32 33 34 34 33 34 34 34 35 36 36 37 37 37 38 39 40 41 41 41 42 43 43 43 44 44 44
22 23 24 23 23 23 23 24 25 26 27 28 29 30 29 30 30 31 32 33 33 33 34 34 35 36 36 36 37 38 38 39 39 40 41 41 42 42 43 44 44 45 45 45
23 23 23 23 22 22 22 23 25 26 27 28 29 30 28 29 29 30 31 32 32 32 33 34 35 36 37 37 37 38 39 40 41 41 41 42 43 43 44 44 44 45 46 46
22 23 22 23 23 23 23 23 24 25 28 29 30 29 27 27 28 29 30 31 30 31 32 33 34 35 37 38 39 39 40 41 41 42 43 43 44 44 44 44 44 45 46 47
23 23 23 23 23 24 24 24 24 26 27 29 28 28 27 28 29 29 29 30 30 31 32 33 33 35 37 38 39 40 41 42 42 42 43 43 43 43 44 44 45 45 45 47
24 24 23 23 22 23 24 23 24 25 26 26 27 27 27 28 29 30 30 31 32 32 33 34 35 36 37 38 39 40 40 40 41 42 42 43 43 43 43 44 44 45 46 46
23 24 23 23 22 23 22 21 22 23 24 26 26 26 27 27 28 30 30 31 32 32 32 33 34 35 36 37 38 39 40 40 40 40 40 40 41 43 44 44 43 44 44 45
23 23 23 23 23 23 21 21 22 23 24 25 27 27 27 27 27 29 30 30 31 32 32 32 32 33 34 35 36 37 38 39 39 40 40 40 41 41 42 42 42 42 42 42
22 23 23 23 24 23 22 22 22 23 23 24 25 26 26 27 27 27 29 30 31 32 33 32 31 33 33 33 34 34 35 36 37 38 39 39 40 40 40 41 41 41 41 41
22 23 23 23 24 24 22 22 22 24 24 23 25 25 26 26 27 27 29 30 30 31 32 32 32 33 33 33 34 34 34 35 36 36 37 37 38 39 39 39 40 40 39 39
21 22 22 23 24 24 23 23 24 25 25 24 25 26 26 26 27 27 28 28 29 30 30 31 31 31 32 32 33 34 34 34 35 35 35 35 35 36 37 37 37 37 37 38
21 22 22 23 23 23 23 24 25 26 25 25 25 26 26 27 26 27 27 27 28 28 29 30 30 30 30 31 32 32 32 33 34 34 34 34 34 34 34 35 36 36 36 36
21 21 21 22 22 23 24 26 26 26 26 26 26 27 27 27 26 27 27 27 28 29 29 30 30 29 30 30 30 30 30 31 31 32 32 32 32 33 33 34 35 34 35 35
21 21 22 22 22 23 24 25 26 26 26 26 26 27 27 27 27 27 28 28 29 29 29 30 30 30 30 29 29 29 29 29 29 30 30 30 31 32 32 33 33 34 35 35
22 22 22 22 23 23 24 25 26 26 27 27 27 27 27 27 27 27 28 28 28 28 28 29 29 30 29 29 29 29 28 28 29 28 28 29 30 31 31 31 31 32 33 34
22 22 23 23 23 24 24 25 25 26 26 27 26 26 26 26 26 27 27 27 27 27 27 27 28 28 28 29 29 29 28 28 27 27 27 29 30 31 31 31 31 31 32 33
Wind_Direction
269 268 268 268 266 265 263 261 260 261 262 261 259 258 258 259 260 261 259 258 256 255 255 255 254 251 250 251 250 251 251 252 253 253 253 254 255 256 257 258 258 259 259 261
269 269 270 269 268 267 265 263 261 261 262 261 259 259 260 261 261 261 259 258 258 257 257 257 257 255 254 253 253 252 253 252 253 254 254 255 255 256 257 258 260 260 261 262
270 271 271 271 270 269 266 264 262 262 261 261 261 260 260 261 261 260 260 258 257 258 259 259 258 258 257 255 252 252 253 253 254 254 254 254 255 256 257 259 261 263 263 262
269 270 270 271 271 269 266 264 262 262 262 262 263 264 261 261 262 261 260 258 257 257 258 259 259 258 257 255 253 253 253 253 254 254 254 255 257 258 259 260 262 264 266 265
271 270 271 272 272 271 268 265 264 263 263 262 262 264 262 262 263 263 261 259 258 257 258 259 259 259 258 256 254 253 252 252 253 254 254 255 257 259 259 260 261 263 265 266
272 272 273 273 273 272 270 267 265 265 265 263 262 264 264 263 263 264 263 262 260 258 257 258 258 258 258 257 255 254 254 254 255 256 256 257 258 259 260 261 262 264 265 266
273 273 274 274 274 273 272 270 268 267 266 266 265 264 264 263 264 264 265 264 262 259 258 259 258 256 256 257 256 256 256 257 257 257 258 258 259 260 261 262 263 264 265 266
275 274 275 276 277 277 274 271 270 270 269 269 267 266 265 264 264 264 264 263 261 261 260 260 258 257 257 257 257 257 257 257 258 259 259 259 259 260 261 262 263 264 265 265
278 276 276 277 278 278 275 271 271 271 270 270 268 267 266 266 265 265 264 263 262 261 260 260 259 259 259 258 258 257 256 257 259 260 260 260 260 261 262 262 263 264 265 265
280 280 278 278 277 277 276 274 270 270 271 271 271 271 270 269 268 265 263 263 262 261 260 260 260 260 260 258 258 258 257 258 258 259 260 261 262 262 262 264 264 265 266 266
281 282 281 279 279 280 277 273 270 269 269 272 274 272 272 272 270 268 265 264 262 262 261 260 261 261 261 260 258 257 257 258 259 260 261 262 263 262 262 263 263 264 266 266
281 282 282 282 282 280 278 274 272 270 269 271 273 273 275 273 272 270 268 266 265 263 262 261 261 261 261 261 260 259 258 260 261 262 262 262 263 264 263 263 263 264 265 266
281 283 284 283 282 280 278 276 273 272 272 271 272 274 275 275 274 271 270 269 266 265 263 262 262 262 262 262 261 261 261 262 262 263 264 264 263 264 265 265 265 264 264 265
279 280 281 283 284 282 279 278 276 275 274 273 273 274 274 276 275 273 271 270 268 265 265 265 264 264 263 263 263 263 264 264 263 263 264 264 264 265 266 266 266 266 266 266
278 279 280 281 282 283 281 279 277 276 277 276 275 274 274 273 274 275 274 272 270 268 267 267 268 267 266 266 265 265 265 264 264 265 265 265 265 266 267 268 268 268 268 268
277 278 279 280 281 283 282 281 280 279 277 277 278 277 275 274 274 275 275 274 272 271 270 270 270 270 269 268 268 267 265 264 265 265 265 265 265 267 268 268 269 269 269 269
275 278 278 279 281 283 284 285 283 282 279 278 278 279 277 276 276 277 277 276 274 273 273 272 272 272 272 271 270 269 268 267 267 266 266 266 266 267 269 270 271 270 270 270
274 276 278 280 281 283 289 288 287 286 283 280 279 280 280 280 281 280 279 277 275 274 274 274 274 274 274 273 272 270 270 269 269 268 267 267 267 269 270 271 272 272 271 270
272 275 278 281 283 285 288 289 289 288 286 285 283 283 283 282 283 282 282 279 277 276 275 276 276 275 275 274 273 272 272 271 271 271 269 269 269 270 271 272 272 272 272 271
271 274 277 281 283 288 292 290 290 288 287 285 285 285 286 285 284 285 285 284 281 279 277 277 277 277 276 275 274 274 273 273 273 272 271 270 270 271 271 272 272 273 272 271
273 273 276 280 283 289 293 292 292 291 291 288 287 288 289 288 288 287 286 285 284 282 279 279 280 279 279 277 276 275 275 274 274 273 272 270 271 272 271 271 271 272 271 270
276 277 279 281 283 290 292 293 294 293 290 289 290 290 290 289 290 289 288 287 286 284 283 282 282 282 281 279 278 277 277 276 275 274 272 271 272 272 272 271 271 270 269 270
276 278 280 283 287 291 292 293 294 293 291 291 291 292 292 291 291 290 290 290 289 287 286 284 283 282 282 281 279 279 279 277 276 275 274 272 273 273 273 274 273 270 269 270
277 279 281 284 286 289 291 293 294 294 292 293 292 292 292 292 291 291 291 291 290 289 287 284 282 281 281 281 281 280 279 278 277 276 275 274 274 274 276 276 274 272 270 270
279 280 283 286 287 286 289 292 294 294 293 292 292 292 291 291 291 292 293 292 292 291 289 286 284 283 282 282 282 281 279 278 278 278 276 276 276 276 277 277 276 274 272 272
279 282 284 286 286 288 290 292 293 294 293 293 293 293 293 293 293 294 294 294 294 294 291 289 287 287 284 282 283 281 279 278 278 278 277 278 278 278 278 277 277 276 274 274